• en Suisse
  • Liste des pays
  • À 7 jours
  • Température de l'eau
  • Carte satellitaire
  • Carte météo
  • Widgets météo
  • user-avatar
    Se connecter

    Météo par heure à Kalgoorlie

    Ce jour, 19 Septembre, Mercredi

    Heure Température Précipitation Vent Pression Humidité
    00:00 +12°C° 0 mm 3 m/s 737 mmHg 68%
    01:00 +11°C° 0 mm 3 m/s 737 mmHg 74%
    02:00 +11°C° 0 mm 3 m/s 736 mmHg 79%
    03:00 +10°C° 0 mm 3 m/s 736 mmHg 83%
    04:00 +10°C° 0 mm 3 m/s 737 mmHg 87%
    05:00 +9°C° 0 mm 2 m/s 737 mmHg 90%
    06:00 +10°C° 0 mm 2 m/s 737 mmHg 85%
    07:00 +11°C° 0 mm 3 m/s 737 mmHg 79%
    08:00 +12°C° 0 mm 3 m/s 738 mmHg 73%
    09:00 +13°C° 0 mm 3 m/s 738 mmHg 68%
    10:00 +15°C° 0 mm 2 m/s 737 mmHg 63%
    11:00 +16°C° 0 mm 2 m/s 737 mmHg 58%
    12:00 +16°C° 0 mm 2 m/s 736 mmHg 54%
    13:00 +17°C° 0 mm 2 m/s 736 mmHg 51%
    14:00 +18°C° 0 mm 2 m/s 736 mmHg 46%
    15:00 +18°C° 0 mm 2 m/s 736 mmHg 45%
    16:00 +19°C° 0 mm 2 m/s 736 mmHg 45%
    17:00 +19°C° 0 mm 2 m/s 736 mmHg 44%
    18:00 +18°C° 0 mm 3 m/s 736 mmHg 48%
    19:00 +17°C° 0 mm 3 m/s 736 mmHg 52%
    20:00 +14°C° 0 mm 3 m/s 736 mmHg 56%
    21:00 +14°C° 0 mm 3 m/s 736 mmHg 58%
    22:00 +13°C° 0 mm 3 m/s 736 mmHg 60%
    23:00 +13°C° 0 mm 3 m/s 736 mmHg 63%

    Demain, 20 Septembre, Jeudi

    Heure Température Précipitation Vent Pression Humidité
    00:00 +12°C° 0 mm 3 m/s 736 mmHg 64%
    01:00 +12°C° 0 mm 3 m/s 736 mmHg 66%
    02:00 +11°C° 0 mm 3 m/s 736 mmHg 68%
    03:00 +11°C° 0 mm 3 m/s 736 mmHg 70%
    04:00 +11°C° 0 mm 3 m/s 736 mmHg 71%
    05:00 +10°C° 0 mm 3 m/s 736 mmHg 73%
    06:00 +12°C° 0 mm 3 m/s 736 mmHg 68%
    07:00 +13°C° 0 mm 3 m/s 736 mmHg 62%
    08:00 +15°C° 0 mm 4 m/s 736 mmHg 57%
    09:00 +17°C° 0 mm 3 m/s 736 mmHg 51%
    10:00 +19°C° 0 mm 3 m/s 736 mmHg 45%
    11:00 +20°C° 0 mm 3 m/s 736 mmHg 39%
    12:00 +21°C° 0 mm 2 m/s 735 mmHg 35%
    13:00 +23°C° 0 mm 2 m/s 734 mmHg 32%
    14:00 +24°C° 0 mm 2 m/s 734 mmHg 28%
    15:00 +24°C° 0 mm 2 m/s 733 mmHg 27%
    16:00 +24°C° 0 mm 2 m/s 733 mmHg 26%
    17:00 +25°C° 0 mm 2 m/s 733 mmHg 26%
    18:00 +23°C° 0 mm 2 m/s 733 mmHg 28%
    19:00 +21°C° 0 mm 2 m/s 734 mmHg 31%
    20:00 +20°C° 0 mm 2 m/s 734 mmHg 33%
    21:00 +20°C° 0 mm 3 m/s 734 mmHg 34%
    22:00 +19°C° 0 mm 3 m/s 734 mmHg 35%
    23:00 +19°C° 0 mm 3 m/s 734 mmHg 36%

    Après-demain, 21 Septembre, Vendredi

    Heure Température Précipitation Vent Pression Humidité
    00:00 +18°C° 0 mm 3 m/s 734 mmHg 37%
    01:00 +18°C° 0 mm 4 m/s 734 mmHg 38%
    02:00 +17°C° 0 mm 4 m/s 734 mmHg 39%
    03:00 +17°C° 0 mm 4 m/s 734 mmHg 40%
    04:00 +15°C° 0 mm 4 m/s 734 mmHg 41%
    05:00 +15°C° 0 mm 4 m/s 734 mmHg 42%
    06:00 +18°C° 0 mm 4 m/s 734 mmHg 39%
    07:00 +19°C° 0 mm 5 m/s 734 mmHg 36%
    08:00 +21°C° 0 mm 6 m/s 735 mmHg 33%
    09:00 +22°C° 0 mm 5 m/s 735 mmHg 29%
    10:00 +25°C° 0 mm 5 m/s 735 mmHg 25%
    11:00 +27°C° 0 mm 5 m/s 734 mmHg 20%
    12:00 +28°C° 0 mm 5 m/s 734 mmHg 19%
    13:00 +28°C° 0 mm 4 m/s 733 mmHg 17%
    14:00 +29°C° 0 mm 4 m/s 732 mmHg 16%
    15:00 +29°C° 0 mm 4 m/s 732 mmHg 16%
    16:00 +29°C° 0 mm 3 m/s 732 mmHg 16%
    17:00 +28°C° 0 mm 3 m/s 732 mmHg 16%
    18:00 +27°C° 0 mm 3 m/s 733 mmHg 17%
    19:00 +26°C° 0 mm 3 m/s 733 mmHg 19%
    20:00 +24°C° 0 mm 3 m/s 734 mmHg 20%
    21:00 +24°C° 0 mm 3 m/s 734 mmHg 21%
    22:00 +22°C° 0 mm 3 m/s 734 mmHg 21%
    23:00 +21°C° 0 mm 4 m/s 734 mmHg 22%

    22 Septembre, Samedi

    Heure Température Précipitation Vent Pression Humidité
    00:00 +21°C° 0 mm 3 m/s 734 mmHg 23%
    01:00 +20°C° 0 mm 3 m/s 733 mmHg 25%
    02:00 +19°C° 0 mm 3 m/s 733 mmHg 26%
    03:00 +18°C° 0 mm 3 m/s 733 mmHg 27%
    04:00 +18°C° 0 mm 3 m/s 733 mmHg 29%
    05:00 +17°C° 0 mm 3 m/s 733 mmHg 30%
    06:00 +19°C° 0 mm 4 m/s 734 mmHg 29%
    07:00 +21°C° 0 mm 4 m/s 735 mmHg 27%
    08:00 +23°C° 0 mm 5 m/s 735 mmHg 25%
    09:00 +26°C° 0 mm 5 m/s 735 mmHg 23%
    10:00 +28°C° 0 mm 6 m/s 735 mmHg 21%
    11:00 +30°C° 0 mm 6 m/s 735 mmHg 18%
    12:00 +30°C° 0 mm 6 m/s 734 mmHg 18%
    13:00 +30°C° 0 mm 6 m/s 733 mmHg 17%
    14:00 +32°C° 0 mm 6 m/s 732 mmHg 17%
    15:00 +30°C° 0 mm 6 m/s 732 mmHg 17%
    16:00 +30°C° 0 mm 5 m/s 732 mmHg 18%
    17:00 +29°C° 0 mm 5 m/s 732 mmHg 19%
    18:00 +28°C° 0 mm 5 m/s 732 mmHg 21%
    19:00 +28°C° 0 mm 4 m/s 733 mmHg 23%
    20:00 +27°C° 0 mm 4 m/s 733 mmHg 25%
    21:00 +25°C° 0.4 mm 3 m/s 733 mmHg 33%
    22:00 +24°C° 0.4 mm 3 m/s 733 mmHg 41%
    23:00 +22°C° 0.4 mm 3 m/s 733 mmHg 49%

    23 Septembre, Dimanche

    Heure Température Précipitation Vent Pression Humidité
    00:00 +21°C° 0.5 mm 3 m/s 733 mmHg 53%
    01:00 +20°C° 0.5 mm 3 m/s 733 mmHg 57%
    02:00 +19°C° 0.5 mm 3 m/s 732 mmHg 61%
    03:00 +19°C° 0 mm 3 m/s 732 mmHg 61%
    04:00 +18°C° 0 mm 4 m/s 732 mmHg 61%
    05:00 +18°C° 0 mm 4 m/s 732 mmHg 60%
    06:00 +19°C° 0 mm 4 m/s 733 mmHg 54%
    07:00 +21°C° 0 mm 5 m/s 733 mmHg 49%
    08:00 +22°C° 0 mm 5 m/s 734 mmHg 43%
    09:00 +25°C° 0 mm 5 m/s 733 mmHg 37%
    10:00 +27°C° 0 mm 4 m/s 733 mmHg 31%
    11:00 +29°C° 0 mm 4 m/s 733 mmHg 25%
    12:00 +30°C° 0 mm 4 m/s 732 mmHg 23%
    13:00 +30°C° 0 mm 3 m/s 732 mmHg 21%
    14:00 +31°C° 0 mm 3 m/s 731 mmHg 19%
    15:00 +31°C° 0 mm 2 m/s 731 mmHg 20%
    16:00 +30°C° 0 mm 2 m/s 731 mmHg 21%
    17:00 +30°C° 0 mm 1 m/s 731 mmHg 22%
    18:00 +29°C° 0 mm 2 m/s 731 mmHg 23%
    19:00 +28°C° 0 mm 2 m/s 731 mmHg 24%
    20:00 +27°C° 0 mm 2 m/s 731 mmHg 25%
    21:00 +27°C° 0 mm 3 m/s 731 mmHg 26%
    22:00 +26°C° 0 mm 3 m/s 731 mmHg 27%
    23:00 +26°C° 0 mm 3 m/s 730 mmHg 28%

    24 Septembre, Lundi

    Heure Température Précipitation Vent Pression Humidité
    00:00 +25°C° 0 mm 3 m/s 730 mmHg 29%
    01:00 +25°C° 0 mm 3 m/s 730 mmHg 29%
    02:00 +24°C° 0 mm 3 m/s 730 mmHg 30%
    03:00 +24°C° 0 mm 3 m/s 730 mmHg 32%
    04:00 +22°C° 0 mm 3 m/s 729 mmHg 33%
    05:00 +23°C° 0 mm 2 m/s 729 mmHg 34%
    06:00 +24°C° 0 mm 3 m/s 730 mmHg 32%
    07:00 +26°C° 0 mm 4 m/s 730 mmHg 29%
    08:00 +27°C° 0 mm 5 m/s 730 mmHg 26%
    09:00 +29°C° 0 mm 6 m/s 730 mmHg 24%
    10:00 +32°C° 0 mm 7 m/s 729 mmHg 21%
    11:00 +34°C° 0 mm 8 m/s 729 mmHg 18%
    12:00 +34°C° 0 mm 8 m/s 728 mmHg 17%
    13:00 +35°C° 0 mm 8 m/s 728 mmHg 16%
    14:00 +35°C° 0 mm 9 m/s 727 mmHg 15%
    15:00 +34°C° 0 mm 8 m/s 727 mmHg 15%
    16:00 +33°C° 0 mm 7 m/s 727 mmHg 15%
    17:00 +33°C° 0 mm 7 m/s 727 mmHg 14%
    18:00 +30°C° 0 mm 6 m/s 728 mmHg 17%
    19:00 +28°C° 0 mm 6 m/s 728 mmHg 20%
    20:00 +26°C° 0 mm 5 m/s 729 mmHg 23%
    21:00 +24°C° 0 mm 6 m/s 729 mmHg 36%
    22:00 +22°C° 0 mm 6 m/s 729 mmHg 49%
    23:00 +20°C° 0 mm 6 m/s 728 mmHg 62%
    Voir plus